Location: Alafon
(8.4500°N, 4.2333°E)
Time: 01:33:39
(UTC+00:00)

Cosmos 2228 - Pass Details

Date: 05 July 2020
Orbit: 590 x 617 km, 82.5° (Epoch: 06 August)

Event Time Altitude Azimuth Distance (km) Brightness Sun altitude
Rises 19:51:44 0° 342° (NNW) 2,863 7.2 -24.4°
Reaches altitude 10° 19:54:05 10° 334° (NNW) 1,964 6.3 -24.9°
Maximum altitude 19:58:04 36° 267° (W) 977 4.4 -25.7°
Enters shadow 19:59:59 24° 220° (SW) 1,277 4.7 -26.2°
